Wind_Speed
36 37 38 39 41 43 43 43 43 44 45 46 45 44 44 44 43 42 41 41 40 41 41 41 41 41 40 40 41 41 41 41 42 42 42 41 41 41 42 42 43 42 43
35 36 37 38 40 42 42 42 43 44 44 45 45 45 44 44 43 43 43 42 41 41 42 42 42 42 42 41 42 42 42 41 42 42 42 42 42 42 42 42 42 41 41
34 35 36 37 38 39 41 41 43 44 45 44 43 44 45 44 44 44 44 44 43 43 43 42 42 41 40 40 41 42 42 42 41 42 42 42 42 42 42 42 41 40 41
33 34 34 35 36 37 39 41 42 43 43 42 42 43 44 43 43 44 44 44 44 43 43 42 42 42 41 40 41 41 41 42 41 41 41 40 40 39 40 40 41 40 40
32 33 33 34 34 35 37 38 40 42 42 41 41 41 41 41 41 42 43 43 43 43 43 42 42 42 42 41 40 39 40 41 41 40 40 39 39 38 39 39 40 40 40
32 32 33 33 33 35 35 36 38 40 41 42 41 41 41 40 40 40 41 41 41 41 41 42 43 42 42 41 41 40 40 40 40 40 40 39 39 39 39 39 39 39 39
31 32 33 33 34 34 34 35 36 37 39 41 41 40 41 40 39 39 41 41 41 41 41 42 42 42 42 41 41 40 40 39 39 39 38 38 39 39 39 38 38 38 37
31 31 32 32 32 33 33 34 35 36 38 39 39 39 39 39 40 40 40 40 41 42 42 41 41 41 41 40 40 39 38 37 37 37 37 38 38 38 38 37 37 37 36
31 32 32 32 31 31 32 33 35 36 37 38 38 38 39 39 40 40 40 40 39 39 40 40 40 40 39 39 38 38 37 36 36 37 37 37 37 38 38 38 37 36 36
30 31 32 32 32 32 32 33 33 35 36 37 37 38 39 38 38 39 38 38 38 38 38 38 38 38 39 39 38 38 37 36 36 37 37 37 37 37 38 38 38 36 35
30 31 32 32 32 32 32 33 34 35 36 36 36 37 37 38 37 37 37 37 37 37 36 36 37 37 37 38 38 38 37 36 37 36 36 36 36 36 36 36 37 37 36
31 33 33 34 34 34 33 33 33 34 34 35 35 34 35 36 36 36 35 36 36 36 35 35 35 35 36 36 37 37 36 35 35 35 35 35 36 36 36 36 37 37 36
32 33 34 34 35 34 34 34 33 33 34 34 35 35 35 34 34 34 34 34 34 34 35 34 34 34 35 36 36 36 36 36 36 35 35 35 35 35 35 35 35 35 36
32 33 33 34 35 34 33 33 33 33 33 33 34 34 34 34 34 34 33 33 33 34 34 33 33 34 34 34 35 35 35 35 36 36 35 34 34 34 33 33 34 34 35
32 32 32 33 34 33 33 32 32 32 33 33 34 34 33 33 34 34 34 33 33 33 33 33 33 33 33 33 34 34 34 34 34 35 35 34 33 33 33 33 33 33 34
31 31 31 31 32 32 32 31 32 32 32 33 33 33 33 34 34 34 33 33 33 33 33 33 33 33 33 34 34 34 34 33 34 34 34 34 33 33 32 32 32 32 32
31 30 30 30 31 31 31 31 31 31 32 32 33 33 33 33 33 33 33 34 34 34 34 34 33 33 33 33 33 33 33 33 33 33 33 33 33 33 32 32 32 31 31
30 30 30 30 30 30 31 31 31 31 30 31 31 31 31 31 32 32 32 32 32 33 32 32 32 31 31 31 32 32 33 33 33 32 32 32 32 32 32 32 31 31 31
29 29 29 29 30 30 30 30 30 30 30 30 30 30 30 30 30 30 30 30 30 31 31 31 31 31 31 30 31 31 31 32 31 31 31 31 31 31 31 30 29 29 29
28 28 28 28 29 29 28 28 29 29 28 28 28 28 29 29 28 28 29 29 29 29 30 31 31 30 30 30 30 30 30 31 31 30 30 30 31 30 30 29 28 28 28
27 27 27 27 26 27 27 28 28 28 28 27 27 26 26 26 27 27 27 28 29 29 29 29 29 29 30 30 30 30 30 30 30 30 30 29 29 29 29 28 27 26 26
26 26 26 25 25 26 26 27 27 27 27 27 27 26 25 25 26 26 26 26 26 26 27 27 27 27 27 28 27 28 28 28 29 28 28 28 28 28 28 27 27 26 26
24 24 25 25 25 25 26 26 26 26 26 27 27 26 26 25 25 25 25 25 25 25 26 26 26 26 26 26 25 25 25 26 27 28 27 27 27 28 27 27 27 27 27
24 24 24 24 25 25 25 25 24 24 25 25 26 26 26 26 26 25 25 24 24 24 25 25 25 25 24 24 23 24 24 24 25 26 27 26 27 27 27 27 27 27 27
22 22 22 22 23 23 24 23 23 23 23 23 24 25 25 25 25 24 24 24 24 24 24 24 24 24 24 24 24 24 25 25 25 25 26 26 25 26 26 26 27 27 27
20 20 20 20 20 21 21 22 22 22 22 23 23 23 23 23 23 24 24 24 24 24 24 24 24 24 24 24 24 25 25 25 25 26 26 26 25 25 25 25 25 25 25
Wind_Direction
261 260 259 259 259 259 257 255 253 253 252 251 252 253 254 253 254 254 256 257 259 260 261 263 264 265 267 268 267 267 268 269 268 269 270 272 275 277 278 279 279 280 281
260 261 260 260 260 259 257 255 254 253 252 252 252 253 253 253 253 253 255 257 259 260 261 262 263 265 266 268 268 268 268 269 270 270 271 272 274 277 278 279 280 281 282
262 262 262 262 262 260 259 256 254 253 252 253 252 253 254 253 253 253 255 257 259 261 262 262 262 264 266 268 267 267 268 269 270 271 272 272 273 276 277 278 280 281 283
263 263 264 262 262 262 261 259 255 253 252 253 253 254 255 254 255 255 256 258 261 262 262 263 263 264 266 267 268 269 269 269 269 271 272 271 272 275 278 278 279 281 282
263 263 263 263 263 263 262 259 256 255 253 253 253 255 254 255 255 256 257 260 261 261 262 262 263 265 266 267 269 270 270 269 270 271 272 271 272 275 277 279 280 281 282
265 264 263 262 261 263 262 259 257 256 255 254 253 255 255 255 256 257 258 261 261 261 261 262 263 265 266 267 267 269 269 269 270 270 272 272 273 273 276 278 279 280 280
267 265 264 263 261 262 262 260 258 257 257 256 256 256 255 255 257 259 261 261 261 261 262 262 263 263 263 264 266 267 269 269 269 271 272 272 273 273 275 277 278 278 279
267 265 264 263 262 260 258 257 257 256 256 256 256 257 256 257 259 261 264 263 262 262 262 262 262 262 262 263 265 266 267 268 269 271 272 273 274 275 275 275 276 276 277
268 265 263 263 263 261 257 256 256 256 256 255 256 256 256 257 259 261 263 263 263 263 263 262 262 262 262 263 264 264 265 267 269 271 271 273 275 276 276 274 274 275 274
268 266 264 264 265 263 260 258 258 257 256 256 257 257 257 257 258 260 261 263 263 263 263 263 262 261 260 261 261 263 264 267 269 271 271 273 275 276 275 274 273 273 275
270 267 265 264 265 263 260 260 259 258 257 256 257 257 257 257 258 258 261 262 262 262 263 263 263 262 262 261 261 262 263 265 267 269 271 272 273 274 274 274 273 273 273
271 269 266 265 264 261 259 260 260 259 257 256 257 257 257 257 258 259 260 261 261 261 262 262 263 263 262 261 261 261 262 263 265 268 270 271 272 273 273 273 273 273 273
273 270 267 266 264 261 259 258 258 257 257 256 256 257 258 258 257 257 259 259 260 261 261 262 263 263 262 261 261 262 262 264 266 268 270 271 272 273 274 273 273 273 272
274 272 267 263 261 260 259 257 256 254 254 255 255 256 257 256 256 256 257 257 258 260 261 261 263 263 263 262 262 262 263 265 266 267 269 271 271 271 272 272 272 271 271
273 272 269 264 260 258 256 255 255 253 253 253 255 257 257 254 254 256 257 258 259 259 261 261 263 264 264 263 263 264 265 265 267 268 269 270 270 270 270 271 271 271 270
274 272 268 264 260 257 254 253 254 253 253 253 255 257 256 254 254 256 257 258 259 260 261 262 264 265 265 264 263 263 264 265 266 268 268 268 268 268 269 270 270 270 270
272 271 268 264 260 257 255 253 253 254 254 253 254 255 253 253 253 255 256 258 259 261 261 262 263 264 264 263 263 263 263 265 267 268 268 268 268 268 269 270 270 270 270
270 269 267 265 261 257 255 255 255 255 255 254 253 253 251 252 253 253 255 256 258 258 259 261 262 262 263 263 264 264 264 265 266 268 268 268 268 269 269 271 271 271 270
271 269 267 264 261 257 255 255 254 254 254 254 252 252 252 252 252 252 254 255 256 257 257 259 260 261 262 263 264 264 265 265 266 268 268 269 269 268 270 271 271 271 270
271 269 266 265 261 256 254 253 253 252 253 253 252 250 251 251 252 253 254 255 257 258 258 260 260 261 262 264 265 265 266 266 266 267 268 269 268 268 270 271 271 271 269
270 268 266 264 261 256 253 252 251 252 251 251 249 249 250 251 252 253 255 256 258 259 260 260 261 262 263 265 265 266 266 265 265 266 267 268 267 267 268 269 269 270 270
268 266 263 261 260 256 254 252 250 250 249 249 248 250 251 251 252 253 255 256 257 258 259 260 261 262 262 263 263 264 265 265 265 265 266 265 265 266 267 267 269 270 270
266 265 262 260 260 257 253 251 250 249 248 248 248 250 251 251 251 253 254 255 257 258 259 260 261 261 261 260 261 262 264 264 263 262 262 263 264 266 267 267 268 269 270
266 264 262 260 259 256 253 251 249 248 247 247 248 249 250 250 251 251 253 255 257 259 260 260 260 259 258 258 260 263 264 265 265 265 264 265 266 266 266 267 268 268 269
264 263 262 260 259 257 253 249 247 247 247 246 247 248 249 250 250 250 251 253 256 258 260 260 259 259 258 260 262 264 265 266 267 266 266 266 266 266 267 267 268 268 268
262 262 261 259 258 256 252 248 247 247 247 247 247 248 249 249 250 250 251 254 256 258 260 260 260 260 260 262 264 264 266 267 265 266 266 266 267 267 267 267 268 267 266
Height
5618 5619 5620 5622 5623 5625 5626 5629 5632 5634 5637 5639 5642 5644 5647 5649 5651 5653 5655 5656 5658 5659 5660 5660 5661 5661 5661 5661 5661 5661 5661 5661 5661 5662 5662 5661 5660 5659 5658 5656 5654 5652 5650
5609 5610 5611 5612 5613 5614 5616 5618 5620 5623 5625 5628 5630 5633 5636 5638 5640 5642 5644 5646 5647 5648 5649 5650 5650 5650 5650 5650 5651 5651 5651 5650 5650 5650 5650 5650 5649 5648 5646 5645 5643 5641 5639
5600 5601 5601 5602 5603 5604 5605 5607 5609 5612 5614 5617 5620 5622 5625 5627 5629 5631 5633 5635 5636 5637 5638 5639 5640 5640 5640 5640 5640 5640 5639 5639 5639 5638 5638 5638 5638 5637 5635 5633 5631 5629 5627
5591 5592 5592 5593 5593 5594 5596 5597 5599 5601 5603 5606 5609 5611 5614 5616 5618 5620 5622 5623 5625 5626 5627 5628 5629 5629 5629 5629 5629 5629 5628 5628 5628 5627 5627 5627 5627 5625 5624 5622 5620 5618 5616
5583 5583 5583 5584 5584 5585 5586 5587 5589 5590 5593 5595 5597 5600 5603 5605 5607 5609 5610 5612 5613 5614 5615 5617 5617 5618 5618 5618 5618 5618 5618 5617 5617 5616 5616 5616 5616 5615 5613 5611 5610 5608 5606
5574 5574 5574 5575 5575 5576 5576 5577 5579 5581 5583 5584 5587 5589 5592 5594 5596 5597 5598 5600 5601 5602 5604 5605 5606 5606 5607 5607 5607 5607 5607 5606 5606 5605 5605 5605 5604 5604 5602 5601 5599 5598 5596
5565 5565 5565 5566 5566 5566 5567 5568 5570 5571 5572 5574 5576 5579 5581 5583 5585 5586 5587 5588 5589 5591 5592 5593 5594 5595 5595 5596 5596 5596 5596 5595 5595 5595 5594 5593 5593 5593 5592 5590 5588 5586 5585
5556 5556 5556 5556 5557 5557 5558 5559 5560 5561 5562 5564 5566 5568 5570 5572 5573 5575 5575 5576 5578 5579 5580 5581 5582 5583 5584 5584 5584 5585 5585 5585 5585 5584 5584 5583 5582 5581 5580 5579 5578 5576 5575
5547 5547 5547 5547 5547 5548 5548 5549 5550 5551 5553 5555 5556 5558 5560 5562 5563 5564 5564 5565 5567 5568 5569 5570 5570 5571 5573 5573 5574 5574 5575 5575 5574 5573 5573 5572 5571 5570 5569 5568 5567 5566 5565
5538 5538 5538 5538 5538 5538 5539 5539 5540 5542 5543 5545 5546 5548 5549 5551 5552 5553 5554 5555 5556 5557 5558 5559 5559 5560 5561 5561 5562 5563 5564 5564 5564 5563 5563 5562 5561 5559 5558 5557 5556 5555 5554
5529 5528 5528 5528 5529 5529 5529 5530 5531 5532 5533 5535 5536 5538 5539 5541 5542 5543 5543 5544 5545 5546 5547 5548 5549 5550 5550 5551 5551 5552 5553 5553 5553 5552 5552 5551 5550 5549 5548 5547 5546 5545 5544
5519 5519 5518 5518 5519 5519 5520 5520 5521 5522 5523 5524 5526 5527 5528 5530 5531 5532 5533 5534 5535 5536 5537 5538 5538 5539 5539 5540 5541 5541 5542 5541 5541 5541 5541 5540 5540 5539 5538 5536 5535 5534 5534
5510 5509 5508 5508 5508 5509 5509 5510 5511 5512 5513 5514 5515 5517 5518 5519 5520 5522 5523 5524 5524 5525 5526 5527 5528 5528 5528 5529 5530 5530 5531 5531 5531 5530 5530 5530 5530 5528 5527 5526 5525 5524 5524
5499 5498 5498 5498 5498 5498 5499 5500 5501 5501 5502 5504 5505 5506 5508 5509 5510 5512 5513 5514 5515 5515 5516 5517 5518 5518 5518 5519 5519 5520 5520 5520 5520 5520 5520 5520 5519 5518 5517 5516 5515 5514 5514
5489 5488 5487 5487 5487 5488 5489 5490 5491 5492 5492 5494 5495 5496 5498 5499 5501 5502 5503 5504 5505 5506 5507 5507 5508 5508 5509 5509 5509 5510 5510 5510 5510 5510 5510 5509 5509 5508 5507 5506 5505 5504 5504
5479 5478 5477 5477 5477 5478 5479 5480 5481 5482 5483 5484 5485 5486 5488 5490 5491 5492 5493 5494 5495 5496 5497 5497 5498 5498 5499 5499 5499 5499 5500 5500 5500 5500 5499 5499 5499 5498 5497 5496 5495 5495 5494
5469 5468 5467 5467 5467 5468 5469 5470 5471 5472 5473 5474 5475 5476 5478 5479 5481 5482 5483 5484 5485 5486 5487 5488 5488 5488 5489 5489 5489 5489 5490 5490 5490 5490 5490 5489 5489 5488 5487 5487 5486 5485 5485
5458 5458 5457 5457 5457 5458 5459 5460 5461 5462 5463 5464 5466 5467 5468 5469 5471 5472 5473 5474 5475 5476 5477 5478 5478 5479 5479 5479 5479 5480 5480 5480 5480 5480 5480 5479 5479 5479 5478 5478 5477 5476 5476
5448 5448 5448 5447 5447 5448 5449 5450 5452 5453 5454 5455 5456 5457 5459 5460 5461 5463 5464 5465 5466 5467 5468 5468 5469 5469 5469 5470 5470 5470 5470 5470 5470 5470 5470 5470 5470 5470 5469 5469 5468 5468 5467
5438 5438 5438 5438 5438 5439 5440 5441 5442 5444 5445 5446 5447 5449 5450 5451 5453 5454 5455 5456 5457 5458 5458 5459 5459 5460 5460 5460 5461 5461 5461 5461 5461 5461 5461 5461 5461 5461 5461 5460 5460 5459 5459
5429 5429 5429 5429 5429 5430 5431 5432 5433 5435 5436 5437 5439 5440 5442 5443 5444 5445 5446 5447 5448 5449 5449 5450 5450 5451 5451 5451 5451 5452 5452 5452 5452 5452 5453 5452 5452 5452 5452 5452 5452 5451 5451
5420 5420 5420 5420 5421 5421 5422 5423 5425 5426 5428 5429 5431 5432 5434 5435 5436 5437 5438 5439 5440 5440 5441 5441 5442 5442 5442 5442 5443 5443 5443 5443 5444 5444 5444 5444 5444 5444 5444 5444 5444 5444 5443
5411 5411 5411 5412 5412 5413 5414 5415 5416 5418 5419 5421 5423 5424 5426 5427 5428 5429 5430 5431 5432 5432 5433 5433 5433 5434 5434 5434 5434 5435 5435 5435 5435 5436 5436 5436 5436 5436 5436 5436 5436 5436 5436
5403 5403 5403 5403 5404 5405 5406 5407 5408 5410 5411 5413 5415 5416 5418 5419 5420 5421 5422 5423 5424 5424 5424 5425 5425 5426 5426 5426 5427 5427 5427 5427 5427 5428 5428 5428 5428 5428 5428 5428 5428 5428 5428
5395 5395 5395 5396 5396 5397 5398 5400 5401 5402 5404 5405 5407 5408 5410 5411 5412 5413 5414 5415 5416 5417 5417 5417 5418 5418 5419 5419 5419 5419 5419 5419 5419 5419 5419 5420 5420 5420 5420 5420 5420 5420 5420
5388 5388 5389 5389 5389 5390 5391 5393 5394 5395 5396 5398 5399 5401 5402 5403 5404 5405 5407 5408 5408 5409 5409 5410 5410 5410 5411 5411 5411 5411 5411 5411 5411 5411 5411 5412 5412 5412 5412 5412 5412 5412 5412